Regional Weather Roundup
Issued by NWS

Home | Current Version | Previous Version | Graphics & Text | Print | Product List | Glossary On
Versions: 1 2 3 4 5 6 7 8 9 10 11 12 13 14 15 16 17 18 19 20 21 22 23 24 25 26 27 28 29 30 31 32 33 34 35 36 37 38 39 40 41 42 43 44 45 46 47 48 49 50
000
ASUS45 KCYS 242010
RWRWY

WYOMING REGIONAL WEATHER ROUNDUP
NATIONAL WEATHER SERVICE CHEYENNE WY
200 PM MDT SAT SEP 24 2016

NOTE:  "FAIR" INDICATES FEW OR NO CLOUDS BELOW 12,000 FEET
WITH NO SIGNIFICANT WEATHER AND/OR OBSTRUCTIONS TO VISIBILITY.

WYZ001-242100-
YELLOWSTONE NATIONAL PARK

CITY           SKY/WX    TMP DP  RH WIND       PRES   REMARKS
LK YELLOWSTONE   N/A     42  36  79 VRB3      30.22R
W YELLOWSTONE  NOT AVBL

$$
WYZ002>013-054>058-071-098>099-242100-
NORTHERN WYOMING

CITY           SKY/WX    TMP DP  RH WIND       PRES   REMARKS
JACKSON        PTSUNNY   46  37  71 W9        30.20R
CODY           CLOUDY    46  45  93 S7        30.09R
GREYBULL       LGT RAIN  48  45  89 W3        30.06R FOG
WORLAND        RAIN      47  45  93 SW7       30.09R
SHERIDAN       RAIN      46  43  89 W16G26    30.04R
BUFFALO        LGT RAIN  43  39  86 NW10      30.04R
GILLETTE       CLOUDY    43  41  93 W23G35    29.98R
HULETT         LGT RAIN  46  43  87 W16G32    29.92R
NEWCASTLE      LGT RAIN  45  43  93 W21       29.99R

$$
WYZ014>020-022>026-101>103-242100-
CENTRAL WYOMING

CITY           SKY/WX    TMP DP  RH WIND       PRES   REMARKS
BIG PINEY      CLOUDY    49  34  56 N24G35    30.19R
PINEDALE       CLOUDY    46  36  66 NW21G30   30.18R
DUBOIS         CLOUDY    50  37  62 W21G28    30.13R
LANDER         LGT RAIN  42  40  92 SE17      30.12S
RIVERTON       LGT RAIN  42  42 100 S7        30.14S
CASPER         LGT RAIN  46  42  86 W14       30.08R
DOUGLAS        LGT RAIN  50  41  71 NW20G30   30.04S

$$
WYZ021-027>030-104>119-242100-
SOUTHERN WYOMING

CITY           SKY/WX    TMP DP  RH WIND       PRES   REMARKS
EVANSTON       CLOUDY    47  35  63 W20       30.27R
FORT BRIDGER   CLOUDY    49  42  74 W17G28    30.27R
ROCK SPRINGS   LGT RAIN  42  40  92 SW8       30.18S
DIXON          DRIZZLE   44  40  85 W12       30.21R
RAWLINS        CLOUDY    43  37  79 W15       30.15R
SARATOGA       CLOUDY    46  36  66 W23G31    30.15R
LARAMIE        PTSUNNY   53  30  41 W28G36    30.07S
CHEYENNE       CLOUDY    59  33  37 S8        30.04F
TORRINGTON     FAIR      65  34  31 W22G31    29.96F
PINE BLUFFS    FAIR      64  32  29 SW14      30.01F

$$



USA.gov is the U.S. government's official web portal to all federal, state and local government web resources and services.